カタログに戻る

NOAA 16 DEB

運用中SSO
NORAD 41289·DEBRIS·🇺🇸 United States

打ち上げ Sep 21, 2000 から Vandenberg Space Force Base

Loading…

次のパス (今後24時間)

TLE

最新Source: Space-Track

元期: Sep 14, 2026, 12:01 UTC

1 41289U 00055GR  26257.50072616  .00001847  00000-0  90451-3 0  9995
2 41289  98.6439 273.2102 0032679 355.6188   4.4698 14.18781367551384

AllMySatでNOAA 16 DEBをリアルタイム追跡

Download on the App Store